Regional Weather Roundup
Issued by NWS

Home | Current Version | Previous Version | Text Only | Print | Product List | Glossary On
Versions: 1 2 3 4 5 6 7 8 9 10 11 12 13 14 15 16 17 18 19 20 21 22 23 24 25 26 27 28 29 30 31 32 33 34 35 36 37 38 39 40 41 42 43 44 45 46 47 48 49 50
054
ASUS43 KLSX 230307
RWRMO

WEATHER SUMMARY FOR MISSOURI
NATIONAL WEATHER SERVICE SPRINGFIELD MO
1000 PM CDT WED MAR 22 2017

NOTE: "FAIR" INDICATES FEW OR NO CLOUDS BELOW 12,000 FEET WITH NO
       SIGNIFICANT WEATHER AND/OR OBSTRUCTIONS TO VISIBILITY.
       CURRENT SKY AND/OR WEATHER CONDITIONS ARE NOT AVAILABLE FOR
       CHILLICOTHE AND FARMINGTON.

MOZ001>031-035>038-043-044-053-054-230400-
...NORTHERN AND WESTERN MISSOURI...

CITY           SKY/WX    TMP DP  RH WIND       PRES   REMARKS
KANSAS CTY INT CLOUDY    52  25  35 SE16      30.19F
KANSAS C DTWN  CLOUDY    53  25  33 SE16G24   30.19S
LEE`S SUMMIT   CLOUDY    51  26  37 E13G30    30.20F
ST JOSEPH      CLOUDY    50  26  39 SE12G24   30.21S
CHILLICOTHE      N/A     45  18  34 E13       30.28S
KIRKSVILLE     PTCLDY    42  14  32 E9        30.32S

$$
MOZ066>068-077>081-088>096-101>105-230400-
...SOUTHWEST MISSOURI...

CITY           SKY/WX    TMP DP  RH WIND       PRES   REMARKS
SPRINGFIELD    CLOUDY    56  31  38 SE17G23   30.21S
JOPLIN         CLOUDY    55  38  52 SE12      30.18S

$$
MOZ032>034-039>042-045>050-055>058-069>072-230400-
...CENTRAL MISSOURI...

CITY           SKY/WX    TMP DP  RH WIND       PRES   REMARKS
COLUMBIA       CLOUDY    46  20  35 E16G23    30.29F
JEFFERSON CITY CLOUDY    50  21  32 E14       30.30F
ROLLA          CLOUDY    46  23  40 E15       30.29S
SEDALIA        CLOUDY    50  22  33 E16G26    30.26S
WHITEMAN AFB   MOCLDY    50  23  34 SE15G22   30.23S
WARRENSBURG    CLOUDY    50  23  34 E10       30.23F
OSAGE BEACH    CLOUDY   N/A N/A N/A E13G18    30.27S

$$
MOZ051-052-059>065-230400-
...EAST CENTRAL MISSOURI...

CITY           SKY/WX    TMP DP  RH WIND       PRES   REMARKS
ST LOUIS INTL  MOCLDY    47  18  31 E12       30.38R
SPIRIT OF STL  CLOUDY    47  19  33 E8        30.36S
ST CHARLES     PTCLDY    45  18  34 MISG      30.38R

$$
MOZ072>076-082>087-097>100-106>115-230400-
...SOUTH CENTRAL AND SOUTHEAST MISSOURI...

CITY           SKY/WX    TMP DP  RH WIND       PRES   REMARKS
CAPE GIRARDEAU CLEAR     44  27  51 NE6       30.37R
FARMINGTON     CLEAR     41  24  51 E8        30.35S
POPLAR BLUFF   CLOUDY    48  32  53 NE7       30.34R
WEST PLAINS    CLOUDY    51  30  44 SE10      30.29R

$$




USA.gov is the U.S. government's official web portal to all federal, state and local government web resources and services.